Home > Weather > Alexandria > Past weeks

Flag for U.S.A. Weather for the Past 2 Weeks in Alexandria, Virginia, U.S.A.

Now
18 °F

Passing clouds.


Feels Like: 4 °F
Forecast: 11 / 23 °F
Wind: 15 mph from Northwest

Location: Reagan National Airport

Current Time: Feb 13, 2016 at 7:55:28 PM

Latest Report: Feb 13, 2016 at 6:52 PM


Visibility: 10 mi

Pressure: 30.41 "Hg

Humidity: 34%

Dew point: -6 °F

Location of AlexandriaLocation

Historic Weather in Alexandria — Graph

°F

Alexandria Temperature Yesterday

Maximum temperature yesterday: 31 °F (at 2:52 PM)
Minimum temperature yesterday: 20 °F (at 3:52 AM)
Average temperature yesterday: 25 °F

High & Low Weather Summary for the Past Weeks

 TemperatureHumidityPressure
High60 °F (Feb 1, 12:52 PM)100% (Feb 3, 4:52 PM)30.48 "Hg (Feb 3, 4:52 PM)
Low19 °F (Feb 13, 5:52 PM)28% (Feb 11, 3:52 PM)29.56 "Hg (Feb 9, 1:52 PM)
Average38 °F61%30.04 "Hg
* Reported Jan 29 5:52 PM — Feb 13 5:52 PM, Alexandria, Weather by CustomWeather, © 2016

Note: Actual official high and low records may vary slightly from our data, if they occured in-between our weather recording intervals... More about our weather records

Advertising

Alexandria Weather History for the Previous 24 Hours

 ConditionsComfort  
Time TempWeatherWind HumidityBarometerVisibility
5:52 PM
Sat, Feb 13
19 °FPassing clouds.17 mph29%30.39 "Hg10 mi
4:52 PM20 °FScattered clouds.22 mph29%30.33 "Hg10 mi
3:52 PM21 °FPartly sunny.24 mph30%30.31 "Hg10 mi
2:52 PM22 °FPartly sunny.26 mph30%30.29 "Hg10 mi
1:52 PM23 °FPartly sunny.23 mph30%30.29 "Hg10 mi
12:52 PM21 °FPartly sunny.18 mph33%30.28 "Hg10 mi
11:52 AM22 °FScattered clouds.23 mph31%30.29 "Hg10 mi
10:52 AM22 °FPartly sunny.20 mph38%30.28 "Hg10 mi
9:52 AM22 °FPartly sunny.28 mph36%30.25 "Hg10 mi
8:56 AM21 °FScattered clouds.16 mph62%30.24 "Hg8 mi
7:59 AM21 °FCloudy.15 mph68%30.22 "Hg10 mi
6:52 AM22 °FLight snow. Passing clouds.24 mph55%30.16 "Hg7 mi
5:52 AM23 °FLight snow. Overcast.24 mph48%30.12 "Hg9 mi
4:52 AM24 °FPassing clouds.23 mph44%30.09 "Hg10 mi
3:52 AM26 °FPassing clouds.21 mph52%30.04 "Hg10 mi
2:52 AM28 °FOvercast.13 mph49%30.02 "Hg10 mi
1:52 AM27 °FPassing clouds.8 mph55%30.01 "Hg10 mi
12:52 AM27 °FPassing clouds.8 mph66%30.01 "Hg10 mi
11:52 PM
Fri, Feb 12
28 °FOvercast.6 mph64%30.02 "Hg10 mi
10:52 PM28 °FLight snow. Overcast.10 mph64%30.03 "Hg9 mi
9:52 PM29 °FMostly cloudy.6 mph49%30.02 "Hg10 mi
8:52 PM28 °FOvercast.6 mph53%30.01 "Hg10 mi
7:52 PM28 °FPassing clouds.6 mph53%30.01 "Hg10 mi
Weather by CustomWeather, © 2016

See weather overviewHow to use our weather pages